Time,TemperatureF,DewpointF,PressureIn,WindDirection,WindDirectionDegrees,WindSpeedMPH,WindSpeedGustMPH,Humidity,HourlyPrecipIn,Conditions,Clouds,dailyrainin,SoftwareType,DateUTC
2013-11-08 00:05:00,54.1,7.4,30.39,WSW,249,0.0,6.0,15,0.00,,,0.00,Wunderground v.1.15,2013-11-08 08:05:00,
2013-11-08 00:10:00,53.8,7.1,30.39,WSW,249,1.0,6.0,15,0.00,,,0.00,Wunderground v.1.15,2013-11-08 08:10:00,
2013-11-08 00:15:00,53.6,8.4,30.39,WSW,249,3.0,6.0,16,0.00,,,0.00,Wunderground v.1.15,2013-11-08 08:15:00,
2013-11-08 00:20:00,53.4,8.3,30.38,WSW,250,4.0,5.0,16,0.00,,,0.00,Wunderground v.1.15,2013-11-08 08:20:00,
2013-11-08 00:30:00,53.6,9.8,30.39,WSW,255,4.0,4.0,17,0.00,,,0.00,Wunderground v.1.15,2013-11-08 08:30:00,
2013-11-08 00:35:00,54.2,10.3,30.38,WSW,256,3.0,5.0,17,0.00,,,0.00,Wunderground v.1.15,2013-11-08 08:35:00,
2013-11-08 00:45:00,55.1,9.6,30.38,WSW,256,3.0,4.0,16,0.00,,,0.00,Wunderground v.1.15,2013-11-08 08:45:00,
2013-11-08 00:50:00,55.0,9.6,30.38,WSW,256,3.0,7.0,16,0.00,,,0.00,Wunderground v.1.15,2013-11-08 08:50:00,
2013-11-08 00:55:00,53.8,9.9,30.38,WSW,256,3.0,7.0,17,0.00,,,0.00,Wunderground v.1.15,2013-11-08 08:55:00,
2013-11-08 01:05:00,53.7,9.8,30.38,WSW,256,3.0,4.0,17,0.00,,,0.00,Wunderground v.1.15,2013-11-08 09:05:00,
2013-11-08 01:10:00,53.8,9.9,30.38,WSW,256,3.0,7.0,17,0.00,,,0.00,Wunderground v.1.15,2013-11-08 09:10:00,
2013-11-08 01:15:00,53.3,9.5,30.38,WSW,256,3.0,7.0,17,0.00,,,0.00,Wunderground v.1.15,2013-11-08 09:15:00,
2013-11-08 01:20:00,52.8,9.1,30.38,WSW,256,2.0,5.0,17,0.00,,,0.00,Wunderground v.1.15,2013-11-08 09:20:00,
2013-11-08 01:30:00,51.9,9.6,30.38,WSW,256,2.0,5.0,18,0.00,,,0.00,Wunderground v.1.15,2013-11-08 09:30:00,
2013-11-08 01:35:00,51.6,9.4,30.38,WSW,256,2.0,5.0,18,0.00,,,0.00,Wunderground v.1.15,2013-11-08 09:35:00,
2013-11-08 01:45:00,52.2,9.9,30.37,WSW,256,2.0,5.0,18,0.00,,,0.00,Wunderground v.1.15,2013-11-08 09:45:00,
2013-11-08 01:50:00,52.6,8.9,30.37,WSW,256,3.0,6.0,17,0.00,,,0.00,Wunderground v.1.15,2013-11-08 09:50:00,
2013-11-08 02:00:00,51.6,9.4,30.37,WSW,256,3.0,6.0,18,0.00,,,0.00,Wunderground v.1.15,2013-11-08 10:00:00,
2013-11-08 02:05:00,51.8,9.6,30.37,WSW,256,2.0,6.0,18,0.00,,,0.00,Wunderground v.1.15,2013-11-08 10:05:00,
2013-11-08 02:15:00,52.2,9.9,30.37,WSW,256,3.0,6.0,18,0.00,,,0.00,Wunderground v.1.15,2013-11-08 10:15:00,
2013-11-08 02:20:00,51.9,9.6,30.37,WSW,256,2.0,5.0,18,0.00,,,0.00,Wunderground v.1.15,2013-11-08 10:20:00,
2013-11-08 02:30:00,51.5,9.3,30.36,WSW,256,3.0,6.0,18,0.00,,,0.00,Wunderground v.1.15,2013-11-08 10:30:00,
2013-11-08 02:35:00,51.7,8.2,30.36,West,264,5.0,6.0,17,0.00,,,0.00,Wunderground v.1.15,2013-11-08 10:35:00,
2013-11-08 02:40:00,52.2,8.6,30.37,West,265,5.0,5.0,17,0.00,,,0.00,Wunderground v.1.15,2013-11-08 10:40:00,
2013-11-08 02:45:00,52.0,8.5,30.37,West,265,3.0,5.0,17,0.00,,,0.00,Wunderground v.1.15,2013-11-08 10:45:00,
2013-11-08 02:55:00,51.3,9.2,30.37,West,265,3.0,8.0,18,0.00,,,0.00,Wunderground v.1.15,2013-11-08 10:55:00,
2013-11-08 03:00:00,51.1,9.0,30.36,West,265,3.0,8.0,18,0.00,,,0.00,Wunderground v.1.15,2013-11-08 11:00:00,
2013-11-08 03:10:00,50.7,9.9,30.36,West,265,2.0,2.0,19,0.00,,,0.00,Wunderground v.1.15,2013-11-08 11:10:00,
2013-11-08 03:15:00,50.4,9.6,30.36,West,265,1.0,8.0,19,0.00,,,0.00,Wunderground v.1.15,2013-11-08 11:15:00,
2013-11-08 03:20:00,50.0,9.3,30.37,West,265,0.0,6.0,19,0.00,,,0.00,Wunderground v.1.15,2013-11-08 11:20:00,
2013-11-08 03:30:00,49.4,8.8,30.36,West,265,1.0,6.0,19,0.00,,,0.00,Wunderground v.1.15,2013-11-08 11:30:00,
2013-11-08 03:35:00,49.4,8.8,30.36,West,265,2.0,6.0,19,0.00,,,0.00,Wunderground v.1.15,2013-11-08 11:35:00,
2013-11-08 03:45:00,49.8,9.1,30.36,West,265,3.0,6.0,19,0.00,,,0.00,Wunderground v.1.15,2013-11-08 11:45:00,
2013-11-08 03:50:00,50.1,8.2,30.36,West,265,2.0,2.0,18,0.00,,,0.00,Wunderground v.1.15,2013-11-08 11:50:00,
2013-11-08 04:00:00,49.6,9.0,30.36,West,265,0.0,3.0,19,0.00,,,0.00,Wunderground v.1.15,2013-11-08 12:00:00,
2013-11-08 04:05:00,48.3,9.0,30.36,West,265,1.0,3.0,20,0.00,,,0.00,Wunderground v.1.15,2013-11-08 12:05:00,
2013-11-08 04:15:00,49.1,8.5,30.35,West,265,3.0,4.0,19,0.00,,,0.00,Wunderground v.1.15,2013-11-08 12:15:00,
2013-11-08 04:20:00,50.1,8.2,30.36,West,265,3.0,3.0,18,0.00,,,0.00,Wunderground v.1.15,2013-11-08 12:20:00,
2013-11-08 04:25:00,50.3,8.3,30.36,West,265,3.0,4.0,18,0.00,,,0.00,Wunderground v.1.15,2013-11-08 12:25:00,
2013-11-08 04:30:00,50.5,8.5,30.36,West,265,2.0,4.0,18,0.00,,,0.00,Wunderground v.1.15,2013-11-08 12:30:00,
2013-11-08 04:40:00,51.2,7.8,30.35,West,265,2.0,4.0,17,0.00,,,0.00,Wunderground v.1.15,2013-11-08 12:40:00,
2013-11-08 04:45:00,51.4,8.0,30.35,West,265,3.0,4.0,17,0.00,,,0.00,Wunderground v.1.15,2013-11-08 12:45:00,
2013-11-08 04:50:00,51.4,8.0,30.35,West,265,4.0,4.0,17,0.00,,,0.00,Wunderground v.1.15,2013-11-08 12:50:00,
2013-11-08 05:00:00,51.6,8.1,30.35,West,265,4.0,4.0,17,0.00,,,0.00,Wunderground v.1.15,2013-11-08 13:00:00,
2013-11-08 05:05:00,52.0,7.1,30.35,West,264,5.0,7.0,16,0.00,,,0.00,Wunderground v.1.15,2013-11-08 13:05:00,
2013-11-08 05:15:00,52.9,7.8,30.36,West,281,5.0,5.0,16,0.00,,,0.00,Wunderground v.1.15,2013-11-08 13:15:00,
2013-11-08 05:20:00,53.1,8.0,30.36,West,281,3.0,3.0,16,0.00,,,0.00,Wunderground v.1.15,2013-11-08 13:20:00,
2013-11-08 05:30:00,52.8,7.8,30.35,West,281,2.0,8.0,16,0.00,,,0.00,Wunderground v.1.15,2013-11-08 13:30:00,
2013-11-08 05:35:00,52.9,7.8,30.35,West,281,3.0,8.0,16,0.00,,,0.00,Wunderground v.1.15,2013-11-08 13:35:00,
2013-11-08 05:45:00,54.5,7.7,30.36,West,281,3.0,8.0,15,0.00,,,0.00,Wunderground v.1.15,2013-11-08 13:45:00,
2013-11-08 05:55:00,54.1,8.8,30.35,West,281,4.0,7.0,16,0.00,,,0.00,Wunderground v.1.15,2013-11-08 13:55:00,
2013-11-08 06:00:00,54.1,8.8,30.35,West,281,3.0,3.0,16,0.00,,,0.00,Wunderground v.1.15,2013-11-08 14:00:00,
2013-11-08 06:05:00,54.2,8.9,30.35,West,281,2.0,7.0,16,0.00,,,0.00,Wunderground v.1.15,2013-11-08 14:05:00,
2013-11-08 06:15:00,52.7,9.0,30.35,West,281,2.0,7.0,17,0.00,,,0.00,Wunderground v.1.15,2013-11-08 14:15:00,
2013-11-08 06:20:00,53.1,8.0,30.35,West,281,3.0,6.0,16,0.00,,,0.00,Wunderground v.1.15,2013-11-08 14:20:00,
2013-11-08 06:30:00,54.7,7.9,30.36,West,281,2.0,6.0,15,0.00,,,0.00,Wunderground v.1.15,2013-11-08 14:30:00,
2013-11-08 06:35:00,55.1,8.2,30.36,West,281,2.0,6.0,15,0.00,,,0.00,Wunderground v.1.15,2013-11-08 14:35:00,
2013-11-08 06:45:00,55.4,8.4,30.36,West,281,0.0,6.0,15,0.00,,,0.00,Wunderground v.1.15,2013-11-08 14:45:00,
2013-11-08 06:50:00,56.0,8.9,30.37,West,281,0.0,6.0,15,0.00,,,0.00,Wunderground v.1.15,2013-11-08 14:50:00,
2013-11-08 07:00:00,57.7,8.7,30.37,West,281,0.0,6.0,14,0.00,,,0.00,Wunderground v.1.15,2013-11-08 15:00:00,
2013-11-08 07:05:00,58.5,9.4,30.36,West,281,0.0,6.0,14,0.00,,,0.00,Wunderground v.1.15,2013-11-08 15:05:00,
2013-11-08 07:15:00,59.7,13.4,30.37,West,281,0.0,6.0,16,0.00,,,0.00,Wunderground v.1.15,2013-11-08 15:15:00,
2013-11-08 07:20:00,60.5,11.0,30.37,West,281,0.0,1.0,14,0.00,,,0.00,Wunderground v.1.15,2013-11-08 15:20:00,
2013-11-08 07:30:00,60.6,11.1,30.38,West,281,0.0,1.0,14,0.00,,,0.00,Wunderground v.1.15,2013-11-08 15:30:00,
2013-11-08 07:35:00,60.9,9.6,30.38,West,281,0.0,1.0,13,0.00,,,0.00,Wunderground v.1.15,2013-11-08 15:35:00,
2013-11-08 07:40:00,61.6,11.9,30.38,West,281,0.0,1.0,14,0.00,,,0.00,Wunderground v.1.15,2013-11-08 15:40:00,
2013-11-08 07:50:00,62.8,9.4,30.38,West,281,0.0,0.0,12,0.00,,,0.00,Wunderground v.1.15,2013-11-08 15:50:00,
2013-11-08 07:55:00,63.4,9.8,30.38,West,281,0.0,0.0,12,0.00,,,0.00,Wunderground v.1.15,2013-11-08 15:55:00,
2013-11-08 08:05:00,63.9,8.3,30.38,West,281,0.0,0.0,11,0.00,,,0.00,Wunderground v.1.15,2013-11-08 16:05:00,
2013-11-08 08:15:00,64.3,8.6,30.38,West,281,0.0,0.0,11,0.00,,,0.00,Wunderground v.1.15,2013-11-08 16:15:00,
2013-11-08 08:20:00,64.8,9.0,30.38,West,281,0.0,0.0,11,0.00,,,0.00,Wunderground v.1.15,2013-11-08 16:20:00,
2013-11-08 08:30:00,65.6,9.6,30.38,West,281,0.0,0.0,11,0.00,,,0.00,Wunderground v.1.15,2013-11-08 16:30:00,
2013-11-08 08:35:00,65.6,9.6,30.38,West,281,0.0,0.0,11,0.00,,,0.00,Wunderground v.1.15,2013-11-08 16:35:00,
2013-11-08 08:45:00,65.2,9.3,30.38,West,281,0.0,0.0,11,0.00,,,0.00,Wunderground v.1.15,2013-11-08 16:45:00,
2013-11-08 08:50:00,65.1,11.2,30.38,West,281,0.0,2.0,12,0.00,,,0.00,Wunderground v.1.15,2013-11-08 16:50:00,
2013-11-08 08:55:00,64.9,9.0,30.38,West,281,1.0,3.0,11,0.00,,,0.00,Wunderground v.1.15,2013-11-08 16:55:00,
2013-11-08 09:00:00,64.7,8.9,30.38,West,280,2.0,2.0,11,0.00,,,0.00,Wunderground v.1.15,2013-11-08 17:00:00,
2013-11-08 09:05:00,64.9,9.0,30.38,West,275,1.0,2.0,11,0.00,,,0.00,Wunderground v.1.15,2013-11-08 17:05:00,
2013-11-08 09:15:00,65.0,9.1,30.37,West,273,1.0,1.0,11,0.00,,,0.00,Wunderground v.1.15,2013-11-08 17:15:00,
2013-11-08 09:20:00,65.2,11.2,30.37,West,273,0.0,5.0,12,0.00,,,0.00,Wunderground v.1.15,2013-11-08 17:20:00,
2013-11-08 09:30:00,65.8,11.7,30.37,West,273,1.0,1.0,12,0.00,,,0.00,Wunderground v.1.15,2013-11-08 17:30:00,
2013-11-08 09:35:00,66.3,10.1,30.37,WSW,253,1.0,4.0,11,0.00,,,0.00,Wunderground v.1.15,2013-11-08 17:35:00,
2013-11-08 09:45:00,66.8,8.4,30.36,WSW,252,1.0,5.0,10,0.00,,,0.00,Wunderground v.1.15,2013-11-08 17:45:00,
2013-11-08 09:50:00,66.9,8.5,30.36,SW,229,1.0,1.0,10,0.00,,,0.00,Wunderground v.1.15,2013-11-08 17:50:00,
2013-11-08 10:00:00,66.8,8.4,30.36,SSW,207,2.0,2.0,10,0.00,,,0.00,Wunderground v.1.15,2013-11-08 18:00:00,
2013-11-08 10:05:00,67.2,8.7,30.36,SSW,201,2.0,4.0,10,0.00,,,0.00,Wunderground v.1.15,2013-11-08 18:05:00,
2013-11-08 10:15:00,67.4,8.9,30.36,SSW,199,2.0,5.0,10,0.00,,,0.00,Wunderground v.1.15,2013-11-08 18:15:00,
2013-11-08 10:20:00,67.6,9.0,30.36,SSW,199,1.0,1.0,10,0.00,,,0.00,Wunderground v.1.15,2013-11-08 18:20:00,
2013-11-08 10:30:00,68.0,9.3,30.36,SSW,199,0.0,5.0,10,0.00,,,0.00,Wunderground v.1.15,2013-11-08 18:30:00,
2013-11-08 10:35:00,69.1,10.2,30.36,NE,48,2.0,5.0,10,0.00,,,0.00,Wunderground v.1.15,2013-11-08 18:35:00,
2013-11-08 10:45:00,69.4,8.0,30.35,ENE,73,2.0,5.0,9,0.00,,,0.00,Wunderground v.1.15,2013-11-08 18:45:00,
2013-11-08 10:50:00,69.8,8.3,30.36,ENE,69,3.0,3.0,9,0.00,,,0.00,Wunderground v.1.15,2013-11-08 18:50:00,
2013-11-08 11:00:00,69.7,8.3,30.35,ENE,68,3.0,8.0,9,0.00,,,0.00,Wunderground v.1.15,2013-11-08 19:00:00,
2013-11-08 11:10:00,70.2,8.6,30.35,ENE,60,3.0,3.0,9,0.00,,,0.00,Wunderground v.1.15,2013-11-08 19:10:00,
2013-11-08 11:15:00,70.4,8.8,30.35,ENE,58,2.0,4.0,9,0.00,,,0.00,Wunderground v.1.15,2013-11-08 19:15:00,
2013-11-08 11:20:00,70.2,8.6,30.35,ENE,59,1.0,1.0,9,0.00,,,0.00,Wunderground v.1.15,2013-11-08 19:20:00,
2013-11-08 11:30:00,70.3,8.7,30.34,NNW,348,1.0,8.0,9,0.00,,,0.00,Wunderground v.1.15,2013-11-08 19:30:00,
2013-11-08 11:35:00,70.6,8.9,30.34,NNW,348,2.0,8.0,9,0.00,,,0.00,Wunderground v.1.15,2013-11-08 19:35:00,
2013-11-08 11:45:00,70.1,6.0,30.33,NNE,20,0.0,3.0,8,0.00,,,0.00,Wunderground v.1.15,2013-11-08 19:45:00,
2013-11-08 11:50:00,69.7,8.3,30.33,NNE,20,0.0,7.0,9,0.00,,,0.00,Wunderground v.1.15,2013-11-08 19:50:00,
2013-11-08 12:00:00,69.9,5.8,30.33,East,100,1.0,7.0,8,0.00,,,0.00,Wunderground v.1.15,2013-11-08 20:00:00,
2013-11-08 12:05:00,69.4,8.0,30.32,ESE,103,2.0,7.0,9,0.00,,,0.00,Wunderground v.1.15,2013-11-08 20:05:00,
2013-11-08 12:15:00,69.3,8.0,30.32,SE,146,3.0,7.0,9,0.00,,,0.00,Wunderground v.1.15,2013-11-08 20:15:00,
2013-11-08 12:20:00,69.4,8.0,30.32,SE,146,4.0,4.0,9,0.00,,,0.00,Wunderground v.1.15,2013-11-08 20:20:00,
2013-11-08 12:30:00,69.9,8.4,30.31,SE,146,1.0,1.0,9,0.00,,,0.00,Wunderground v.1.15,2013-11-08 20:30:00,
2013-11-08 12:35:00,70.2,8.6,30.31,SE,146,0.0,6.0,9,0.00,,,0.00,Wunderground v.1.15,2013-11-08 20:35:00,
2013-11-08 12:40:00,70.8,9.1,30.31,SE,146,1.0,6.0,9,0.00,,,0.00,Wunderground v.1.15,2013-11-08 20:40:00,
2013-11-08 12:45:00,72.1,10.1,30.31,NW,308,1.0,7.0,9,0.00,,,0.00,Wunderground v.1.15,2013-11-08 20:45:00,
2013-11-08 12:50:00,72.2,7.5,30.30,NNW,336,2.0,2.0,8,0.00,,,0.00,Wunderground v.1.15,2013-11-08 20:50:00,
2013-11-08 13:00:00,72.6,7.8,30.30,NW,318,2.0,9.0,8,0.00,,,0.00,Wunderground v.1.15,2013-11-08 21:00:00,
2013-11-08 13:05:00,72.4,7.7,30.30,NNW,340,2.0,9.0,8,0.00,,,0.00,Wunderground v.1.15,2013-11-08 21:05:00,
2013-11-08 13:15:00,72.6,7.8,30.30,NNW,340,0.0,9.0,8,0.00,,,0.00,Wunderground v.1.15,2013-11-08 21:15:00,
2013-11-08 13:20:00,72.6,7.8,30.30,North,357,1.0,9.0,8,0.00,,,0.00,Wunderground v.1.15,2013-11-08 21:20:00,
2013-11-08 13:30:00,72.9,8.1,30.29,NNW,340,1.0,1.0,8,0.00,,,0.00,Wunderground v.1.15,2013-11-08 21:30:00,
2013-11-08 13:35:00,72.6,7.8,30.29,NW,325,2.0,2.0,8,0.00,,,0.00,Wunderground v.1.15,2013-11-08 21:35:00,
2013-11-08 13:45:00,72.1,7.5,30.29,NNW,336,3.0,9.0,8,0.00,,,0.00,Wunderground v.1.15,2013-11-08 21:45:00,
2013-11-08 13:50:00,72.1,7.5,30.29,NNW,345,3.0,3.0,8,0.00,,,0.00,Wunderground v.1.15,2013-11-08 21:50:00,
2013-11-08 13:55:00,72.1,7.5,30.29,North,359,3.0,7.0,8,0.00,,,0.00,Wunderground v.1.15,2013-11-08 21:55:00,
2013-11-08 14:00:00,72.1,7.5,30.28,NNW,347,3.0,7.0,8,0.00,,,0.00,Wunderground v.1.15,2013-11-08 22:00:00,
2013-11-08 14:10:00,71.7,7.2,30.28,NNW,341,5.0,7.0,8,0.00,,,0.00,Wunderground v.1.15,2013-11-08 22:10:00,
2013-11-08 14:15:00,71.5,7.0,30.28,NNW,339,5.0,7.0,8,0.00,,,0.00,Wunderground v.1.15,2013-11-08 22:15:00,
2013-11-08 14:20:00,71.7,7.2,30.28,NNW,333,5.0,5.0,8,0.00,,,0.00,Wunderground v.1.15,2013-11-08 22:20:00,
2013-11-08 14:30:00,71.5,9.6,30.28,NNW,343,6.0,11.0,9,0.00,,,0.00,Wunderground v.1.15,2013-11-08 22:30:00,
2013-11-08 14:35:00,71.8,9.9,30.28,North,358,6.0,11.0,9,0.00,,,0.00,Wunderground v.1.15,2013-11-08 22:35:00,
2013-11-08 14:45:00,71.5,9.6,30.27,North,2,4.0,11.0,9,0.00,,,0.00,Wunderground v.1.15,2013-11-08 22:45:00,
2013-11-08 14:50:00,71.7,9.8,30.27,NW,325,4.0,4.0,9,0.00,,,0.00,Wunderground v.1.15,2013-11-08 22:50:00,
2013-11-08 15:00:00,71.5,9.6,30.27,NNW,337,3.0,11.0,9,0.00,,,0.00,Wunderground v.1.15,2013-11-08 23:00:00,
2013-11-08 15:05:00,71.3,9.5,30.27,North,352,3.0,11.0,9,0.00,,,0.00,Wunderground v.1.15,2013-11-08 23:05:00,
2013-11-08 15:15:00,71.4,9.6,30.27,NNW,331,3.0,11.0,9,0.00,,,0.00,Wunderground v.1.15,2013-11-08 23:15:00,
2013-11-08 15:25:00,70.8,9.1,30.27,NNW,337,5.0,10.0,9,0.00,,,0.00,Wunderground v.1.15,2013-11-08 23:25:00,
2013-11-08 15:30:00,70.4,11.2,30.27,NNW,333,6.0,10.0,10,0.00,,,0.00,Wunderground v.1.15,2013-11-08 23:30:00,
2013-11-08 15:35:00,70.2,11.0,30.26,NNW,327,7.0,10.0,10,0.00,,,0.00,Wunderground v.1.15,2013-11-08 23:35:00,
2013-11-08 15:45:00,69.9,10.8,30.27,NNW,334,7.0,10.0,10,0.00,,,0.00,Wunderground v.1.15,2013-11-08 23:45:00,
2013-11-08 15:50:00,69.8,10.7,30.27,NW,323,5.0,11.0,10,0.00,,,0.00,Wunderground v.1.15,2013-11-08 23:50:00,
2013-11-08 16:00:00,69.3,12.5,30.26,WNW,300,5.0,5.0,11,0.00,,,0.00,Wunderground v.1.15,2013-11-09 00:00:00,
2013-11-08 16:05:00,69.0,12.2,30.26,WNW,296,5.0,11.0,11,0.00,,,0.00,Wunderground v.1.15,2013-11-09 00:05:00,
2013-11-08 16:15:00,68.4,11.8,30.26,NW,324,5.0,11.0,11,0.00,,,0.00,Wunderground v.1.15,2013-11-09 00:15:00,
2013-11-08 16:20:00,68.1,11.5,30.26,NW,307,5.0,5.0,11,0.00,,,0.00,Wunderground v.1.15,2013-11-09 00:20:00,
2013-11-08 16:30:00,67.1,12.7,30.26,NW,306,4.0,4.0,12,0.00,,,0.00,Wunderground v.1.15,2013-11-09 00:30:00,
2013-11-08 16:35:00,66.5,12.3,30.26,WNW,303,3.0,11.0,12,0.00,,,0.00,Wunderground v.1.15,2013-11-09 00:35:00,
2013-11-08 16:45:00,65.3,13.1,30.26,NW,323,3.0,11.0,13,0.00,,,0.00,Wunderground v.1.15,2013-11-09 00:45:00,
2013-11-08 16:50:00,64.8,12.7,30.26,NW,310,2.0,10.0,13,0.00,,,0.00,Wunderground v.1.15,2013-11-09 00:50:00,
2013-11-08 17:00:00,64.2,13.9,30.26,NW,318,2.0,2.0,14,0.00,,,0.00,Wunderground v.1.15,2013-11-09 01:00:00,
2013-11-08 17:05:00,63.9,15.3,30.26,NW,318,1.0,10.0,15,0.00,,,0.00,Wunderground v.1.15,2013-11-09 01:05:00,
2013-11-08 17:15:00,63.1,16.1,30.27,North,349,0.0,10.0,16,0.00,,,0.00,Wunderground v.1.15,2013-11-09 01:15:00,
2013-11-08 17:20:00,62.7,15.8,30.27,North,349,1.0,1.0,16,0.00,,,0.00,Wunderground v.1.15,2013-11-09 01:20:00,
2013-11-08 17:30:00,62.2,15.4,30.27,NNW,342,1.0,6.0,16,0.00,,,0.00,Wunderground v.1.15,2013-11-09 01:30:00,
2013-11-08 17:35:00,61.6,16.3,30.27,NNW,342,1.0,6.0,17,0.00,,,0.00,Wunderground v.1.15,2013-11-09 01:35:00,
2013-11-08 17:45:00,61.6,17.6,30.27,NW,324,1.0,6.0,18,0.00,,,0.00,Wunderground v.1.15,2013-11-09 01:45:00,
2013-11-08 17:50:00,61.6,16.3,30.27,NW,324,1.0,5.0,17,0.00,,,0.00,Wunderground v.1.15,2013-11-09 01:50:00,
2013-11-08 18:00:00,61.7,16.4,30.28,NW,324,1.0,1.0,17,0.00,,,0.00,Wunderground v.1.15,2013-11-09 02:00:00,
2013-11-08 18:05:00,61.0,15.8,30.28,NW,311,1.0,5.0,17,0.00,,,0.00,Wunderground v.1.15,2013-11-09 02:05:00,
2013-11-08 18:15:00,59.7,16.1,30.28,NW,311,0.0,5.0,18,0.00,,,0.00,Wunderground v.1.15,2013-11-09 02:15:00,
2013-11-08 18:20:00,59.6,16.0,30.28,NW,311,0.0,4.0,18,0.00,,,0.00,Wunderground v.1.15,2013-11-09 02:20:00,
2013-11-08 18:25:00,59.3,17.0,30.28,NW,311,0.0,4.0,19,0.00,,,0.00,Wunderground v.1.15,2013-11-09 02:25:00,
2013-11-08 18:30:00,59.2,16.9,30.28,NW,311,0.0,4.0,19,0.00,,,0.00,Wunderground v.1.15,2013-11-09 02:30:00,
2013-11-08 18:40:00,59.0,16.7,30.28,NW,311,0.0,4.0,19,0.00,,,0.00,Wunderground v.1.15,2013-11-09 02:40:00,
2013-11-08 18:45:00,58.9,16.7,30.28,NW,311,0.0,4.0,19,0.00,,,0.00,Wunderground v.1.15,2013-11-09 02:45:00,
2013-11-08 18:50:00,59.1,18.0,30.28,NW,316,0.0,2.0,20,0.00,,,0.00,Wunderground v.1.15,2013-11-09 02:50:00,
2013-11-08 19:00:00,59.0,16.7,30.28,NW,318,1.0,2.0,19,0.00,,,0.00,Wunderground v.1.15,2013-11-09 03:00:00,
2013-11-08 19:05:00,58.6,16.4,30.28,NW,318,0.0,2.0,19,0.00,,,0.00,Wunderground v.1.15,2013-11-09 03:05:00,
2013-11-08 19:15:00,58.3,16.2,30.28,NW,316,0.0,2.0,19,0.00,,,0.00,Wunderground v.1.15,2013-11-09 03:15:00,
2013-11-08 19:20:00,58.2,16.1,30.28,NW,316,0.0,4.0,19,0.00,,,0.00,Wunderground v.1.15,2013-11-09 03:20:00,
2013-11-08 19:25:00,58.1,16.0,30.28,NW,316,0.0,4.0,19,0.00,,,0.00,Wunderground v.1.15,2013-11-09 03:25:00,
2013-11-08 19:35:00,58.1,14.8,30.28,NW,316,0.0,4.0,18,0.00,,,0.00,Wunderground v.1.15,2013-11-09 03:35:00,
2013-11-08 19:40:00,58.0,14.7,30.29,NW,316,0.0,4.0,18,0.00,,,0.00,Wunderground v.1.15,2013-11-09 03:40:00,
2013-11-08 19:50:00,58.4,15.0,30.29,NW,316,1.0,2.0,18,0.00,,,0.00,Wunderground v.1.15,2013-11-09 03:50:00,
2013-11-08 19:55:00,58.5,15.1,30.29,NW,316,1.0,2.0,18,0.00,,,0.00,Wunderground v.1.15,2013-11-09 03:55:00,
2013-11-08 20:00:00,58.3,14.9,30.29,NW,316,1.0,2.0,18,0.00,,,0.00,Wunderground v.1.15,2013-11-09 04:00:00,
2013-11-08 20:05:00,58.5,15.1,30.29,NW,316,1.0,2.0,18,0.00,,,0.00,Wunderground v.1.15,2013-11-09 04:05:00,
2013-11-08 20:15:00,58.9,14.1,30.29,NW,316,1.0,2.0,17,0.00,,,0.00,Wunderground v.1.15,2013-11-09 04:15:00,
2013-11-08 20:20:00,58.7,13.9,30.29,NW,316,0.0,2.0,17,0.00,,,0.00,Wunderground v.1.15,2013-11-09 04:20:00,
2013-11-08 20:30:00,58.0,14.7,30.29,NW,316,0.0,2.0,18,0.00,,,0.00,Wunderground v.1.15,2013-11-09 04:30:00,
2013-11-08 20:35:00,57.6,14.3,30.30,NW,316,0.0,2.0,18,0.00,,,0.00,Wunderground v.1.15,2013-11-09 04:35:00,
2013-11-08 20:45:00,57.0,15.1,30.30,NW,316,1.0,2.0,19,0.00,,,0.00,Wunderground v.1.15,2013-11-09 04:45:00,
2013-11-08 20:50:00,56.9,15.0,30.30,NW,316,1.0,2.0,19,0.00,,,0.00,Wunderground v.1.15,2013-11-09 04:50:00,
2013-11-08 20:55:00,56.5,15.8,30.30,NW,314,1.0,2.0,20,0.00,,,0.00,Wunderground v.1.15,2013-11-09 04:55:00,
2013-11-08 21:05:00,56.3,15.7,30.30,NW,323,3.0,4.0,20,0.00,,,0.00,Wunderground v.1.15,2013-11-09 05:05:00,
2013-11-08 21:10:00,56.9,16.2,30.30,NW,325,3.0,3.0,20,0.00,,,0.00,Wunderground v.1.15,2013-11-09 05:10:00,
2013-11-08 21:15:00,56.4,15.8,30.30,NW,316,2.0,3.0,20,0.00,,,0.00,Wunderground v.1.15,2013-11-09 05:15:00,
2013-11-08 21:25:00,56.8,16.1,30.30,NW,312,3.0,5.0,20,0.00,,,0.00,Wunderground v.1.15,2013-11-09 05:25:00,
2013-11-08 21:30:00,56.8,16.1,30.30,NW,310,3.0,5.0,20,0.00,,,0.00,Wunderground v.1.15,2013-11-09 05:30:00,
2013-11-08 21:35:00,56.7,16.0,30.31,NW,310,3.0,5.0,20,0.00,,,0.00,Wunderground v.1.15,2013-11-09 05:35:00,
2013-11-08 21:45:00,55.8,15.3,30.31,NW,310,2.0,5.0,20,0.00,,,0.00,Wunderground v.1.15,2013-11-09 05:45:00,
2013-11-08 21:50:00,55.9,14.2,30.31,NW,310,2.0,7.0,19,0.00,,,0.00,Wunderground v.1.15,2013-11-09 05:50:00,
2013-11-08 22:00:00,57.0,15.1,30.31,NW,310,2.0,2.0,19,0.00,,,0.00,Wunderground v.1.15,2013-11-09 06:00:00,
2013-11-08 22:05:00,57.3,14.1,30.31,NW,310,2.0,7.0,18,0.00,,,0.00,Wunderground v.1.15,2013-11-09 06:05:00,
2013-11-08 22:15:00,57.2,14.0,30.31,NW,311,2.0,7.0,18,0.00,,,0.00,Wunderground v.1.15,2013-11-09 06:15:00,
2013-11-08 22:20:00,57.0,13.8,30.31,NW,323,2.0,2.0,18,0.00,,,0.00,Wunderground v.1.15,2013-11-09 06:20:00,
2013-11-08 22:30:00,57.7,14.4,30.31,NW,321,2.0,2.0,18,0.00,,,0.00,Wunderground v.1.15,2013-11-09 06:30:00,
2013-11-08 22:35:00,57.0,13.8,30.31,NW,321,1.0,4.0,18,0.00,,,0.00,Wunderground v.1.15,2013-11-09 06:35:00,
2013-11-08 22:45:00,57.2,14.0,30.31,NW,321,2.0,4.0,18,0.00,,,0.00,Wunderground v.1.15,2013-11-09 06:45:00,
2013-11-08 22:50:00,56.9,13.8,30.31,NW,321,2.0,4.0,18,0.00,,,0.00,Wunderground v.1.15,2013-11-09 06:50:00,
2013-11-08 22:55:00,57.2,14.0,30.30,NW,321,2.0,4.0,18,0.00,,,0.00,Wunderground v.1.15,2013-11-09 06:55:00,
2013-11-08 23:00:00,57.1,13.9,30.30,NW,323,2.0,4.0,18,0.00,,,0.00,Wunderground v.1.15,2013-11-09 07:00:00,
2013-11-08 23:10:00,55.5,13.8,30.30,NW,323,1.0,4.0,19,0.00,,,0.00,Wunderground v.1.15,2013-11-09 07:10:00,
2013-11-08 23:20:00,55.0,13.4,30.30,NW,323,1.0,4.0,19,0.00,,,0.00,Wunderground v.1.15,2013-11-09 07:20:00,
2013-11-08 23:30:00,54.4,11.7,30.30,NW,323,2.0,4.0,18,0.00,,,0.00,Wunderground v.1.15,2013-11-09 07:30:00,
2013-11-08 23:35:00,54.7,12.0,30.30,NW,323,1.0,4.0,18,0.00,,,0.00,Wunderground v.1.15,2013-11-09 07:35:00,
2013-11-08 23:45:00,54.9,12.1,30.30,NW,323,1.0,4.0,18,0.00,,,0.00,Wunderground v.1.15,2013-11-09 07:45:00,
2013-11-08 23:50:00,55.6,12.7,30.30,NW,323,1.0,1.0,18,0.00,,,0.00,Wunderground v.1.15,2013-11-09 07:50:00,